Terminal Aerodrome Forecast
Issued by NWS

Home | Current Version | Previous Version | Text Only | Print | Product List | Glossary On
Versions: 1 2 3 4 5 6 7 8 9 10 11 12 13 14 15 16 17 18 19 20 21
000
FTUS43 KPAH 221515 AAA
TAFCGI
TAF AMD
KCGI 221515Z 2215/2312 VRB10G20KT P6SM VCTS SCT020CB BKN070
     FM221800 VRB06KT P6SM FEW035 SCT250=

USA.gov is the U.S. government's official web portal to all federal, state and local government web resources and services.